Regional Weather Roundup
Issued by NWS Midland/Odessa, TX

Home | Current Version | Previous Version | Text Only | Print | Product List | Glossary On
Versions: 1 2 3 4 5 6 7 8 9 10 11 12 13 14 15 16 17 18 19 20 21 22 23 24 25 26 27 28 29 30 31 32 33 34 35 36 37 38 39 40 41 42 43 44 45 46 47 48 49 50
000
ASUS44 KMAF 022010
RWRMAF
MIDLAND AREA WEATHER ROUNDUP
NATIONAL WEATHER SERVICE MIDLAND TX
300 PM CDT MON MAY 02 2016

...IN SOUTHWEST TEXAS AND SOUTHEAST NEW MEXICO...

CITY           SKY/WX    TMP DP  RH WIND       PRES   REMARKS
ALPINE         SUNNY     60  37  40 E8        30.26F
ANDREWS        FAIR      64  35  33 N9        30.20F
ARTESIA        SUNNY     59  34  38 VRB6      30.22F
BIG SPRING     SUNNY     63  35  35 N7G16     30.19F
CARLSBAD       SUNNY     63  35  35 MISG      30.20F
DRYDEN           N/A     69  42  37 N8G17     30.15F
FORT STOCKTON  SUNNY     63  38  39 VRB5      30.20F
GUAD PASS      SUNNY     55  32  41 E15       30.23F
HOBBS          SUNNY     63  32  31 N7        30.22F
MARFA          SUNNY     61  39  44 S8        30.21F
MIDLAND AIRPK  SUNNY     67  35  30 NE5       30.19F
MIDLAND INTL   SUNNY     68  36  30 N10G17    30.18F
ODESSA         SUNNY     68  35  29 VRB7      30.19F
PECOS          SUNNY     65  35  33 CALM      30.19F
PRESIDIO       FAIR      72  41  33 NE7       30.13F
SEMINOLE       SUNNY     64  33  32 CALM      30.21F
SNYDER           N/A     63  39  41 N12G18    30.18F
WINK           SUNNY     66  36  32 NW8       30.18F
$$
...OTHER STATIONS IN TEXAS...

CITY           SKY/WX    TMP DP  RH WIND       PRES   REMARKS
ABILENE        MOSUNNY   65  46  50 NW13G21   30.16F
AMARILLO       SUNNY     59  34  39 NW12      30.20F
AUSTIN         CLOUDY    66  52  60 N15       30.09S
BROWNSVILLE    CLOUDY    75  65  70 N13G24    29.95F
CORPUS CHRISTI CLOUDY    75  58  55 N17       29.99F
DALLAS FTW     CLOUDY    65  48  54 N16       30.11F
DEL RIO        CLOUDY    66  49  54 NW12G21   30.13F
EL PASO        FAIR      66  32  28 VRB6      30.17F
HOUSTON INT    MOSUNNY   71  62  73 NE12      29.99F
LUBBOCK        MOSUNNY   65  33  30 VRB6G17   30.19F
SAN ANGELO     MOSUNNY   64  47  53 NW10      30.17F
SAN ANTONIO    CLOUDY    63  50  62 N17       30.10F
WACO           CLOUDY    63  49  60 N13       30.13R
WICHITA FALLS  NOT AVBL
$$
...OTHER LOCATIONS IN NEW MEXICO...

CITY           SKY/WX    TMP DP  RH WIND       PRES   REMARKS
ALAMAGORDO     SUNNY     63  32  31 S5        30.20F
ALBUQUERQUE    MOSUNNY   56  32  40 VRB5      30.23F
CANNON AFB     SUNNY     59  33  38 VRB3      30.20F
CLOVIS         SUNNY     57  34  41 N5        30.22F
HOLLOMAN AFB   SUNNY     63  31  30 W5        30.18F
ROSWELL        SUNNY     61  32  33 VRB3      30.21F
RUIDOSO          N/A     50  36  57 S7        30.26F
SANTA FE       MOSUNNY   56  31  38 W5        30.22F
TRUTH OR CONSE LGT RAIN  62  31  31 S9        30.18F
TUCUMCARI      SUNNY     59  33  37 VRB6      30.20F
$$



USA.gov is the U.S. government's official web portal to all federal, state and local government web resources and services.